Regional Weather Roundup
Issued by NWS

Home | Current Version | Previous Version | Text Only | Print | Product List | Glossary Off
Versions: 1 2 3 4 5 6 7 8 9 10 11 12 13 14 15 16 17 18 19 20 21 22 23 24 25 26 27 28 29 30 31 32 33 34 35 36 37 38 39 40 41 42 43 44 45 46 47 48 49 50

331
ASUS43 KLSX 182207
RWRMO

WEATHER SUMMARY FOR MISSOURI
NATIONAL WEATHER SERVICE SPRINGFIELD MO
500 PM CDT WED OCT 18 2017

NOTE: "FAIR" INDICATES FEW OR NO CLOUDS BELOW 12,000 FEET WITH NO
       SIGNIFICANT WEATHER AND/OR OBSTRUCTIONS TO VISIBILITY.
       CURRENT SKY AND/OR WEATHER CONDITIONS ARE NOT AVAILABLE FOR
       CHILLICOTHE AND FARMINGTON.

MOZ001>031-035>038-043-044-053-054-182300-
...NORTHERN AND WESTERN MISSOURI...

CITY           SKY/WX    TMP DP  RH WIND       PRES   REMARKS
KANSAS CTY INT PTSUNNY   73  52  47 S9        29.99S
KANSAS C DTWN  SUNNY     74  50  42 S10       29.99R
LEE`S SUMMIT   MOSUNNY   72  49  44 S15       30.02R
ST JOSEPH      SUNNY     75  50  41 S14       29.98R
CHILLICOTHE      N/A     74  49  41 S14G22    30.00R
KIRKSVILLE     SUNNY     73  48  41 SW13      30.01S

$$
MOZ066>068-077>081-088>096-101>105-182300-
...SOUTHWEST MISSOURI...

CITY           SKY/WX    TMP DP  RH WIND       PRES   REMARKS
SPRINGFIELD    PTSUNNY   76  46  34 S8        30.08S
JOPLIN         MOSUNNY   76  49  38 S13       30.06S
BRANSON        MOSUNNY   77  39  25 SE7       30.12R

$$
MOZ032>034-039>042-045>050-055>058-069>072-182300-
...CENTRAL MISSOURI...

CITY           SKY/WX    TMP DP  RH WIND       PRES   REMARKS
COLUMBIA       SUNNY     73  47  39 S10       30.06S
JEFFERSON CITY SUNNY     75  43  31 S9        30.04F
ROLLA          SUNNY     74  42  31 S14       30.09F
SEDALIA        SUNNY     75  51  43 S12       30.04S
WHITEMAN AFB   MOSUNNY   74  51  44 SW17      29.99R
WARRENSBURG    MOSUNNY   73  46  38 S12G18    30.02R
OSAGE BEACH    SUNNY     76  44  32 S14       30.07S

$$
MOZ051-052-059>065-182300-
...EAST CENTRAL MISSOURI...

CITY           SKY/WX    TMP DP  RH WIND       PRES   REMARKS
ST LOUIS INTL  MOSUNNY   74  45  35 S13       30.09F
SPIRIT OF STL  SUNNY     75  45  34 S7        30.07F
ST CHARLES     SUNNY     75  41  29 S14       30.07F

$$
MOZ072>076-082>087-097>100-106>115-182300-
...SOUTH CENTRAL AND SOUTHEAST MISSOURI...

CITY           SKY/WX    TMP DP  RH WIND       PRES   REMARKS
CAPE GIRARDEAU SUNNY     72  46  39 S15       30.16S
FARMINGTON     SUNNY     71  47  42 S13       30.13F
POPLAR BLUFF   SUNNY     74  47  38 S10       30.14F
WEST PLAINS    SUNNY     74  44  34 S7        30.14S

$$



USA.gov is the U.S. government's official web portal to all federal, state and local government web resources and services.